Location: Caltech
(34.1382°N, 118.1253°W)
Time: 05:03:18
(UTC-07:00)

Cosmos 1626 - Visible Passes

Search period start: 31 May 2016 00:00
Search period end: 10 June 2016 00:00
Orbit: 501 x 503 km, 82.5° (Epoch: 29 May)

Date Brightness Start Highest point End Pass type
(mag) Time Alt. Az. Time Alt. Az. Time Alt. Az.
31 May 4.6 02:12:11 20° NE 02:12:11 20° NE 02:13:43 10° NNE visible
31 May 4.7 03:46:55 11° WNW 03:46:55 11° WNW 03:47:17 10° NW visible
01 Jun 5.0 01:53:05 15° NE 01:53:05 15° NE 01:54:02 10° NE visible
01 Jun 4.5 03:27:48 14° NW 03:27:48 14° NW 03:28:52 10° NW visible
02 Jun 5.3 01:33:57 11° NE 01:33:57 11° NE 01:34:09 10° NE visible
02 Jun 4.4 03:08:41 17° NW 03:08:41 17° NW 03:10:01 10° NNW visible
03 Jun 4.3 02:49:32 20° NNW 02:49:32 20° NNW 02:51:00 10° NNW visible
04 Jun 4.4 02:30:22 21° NNW 02:30:22 21° NNW 02:31:50 10° N visible
05 Jun 4.5 02:11:12 21° N 02:11:12 21° N 02:12:35 10° N visible
06 Jun 4.7 01:52:01 20° N 01:52:01 20° N 01:53:14 10° N visible
07 Jun 4.9 01:32:48 17° NNE 01:32:48 17° NNE 01:33:48 10° NNE visible
08 Jun 5.1 01:13:35 14° NNE 01:13:35 14° NNE 01:14:16 10° NNE visible
09 Jun 5.3 00:54:21 11° NE 00:54:21 11° NE 00:54:37 10° NE visible
09 Jun 5.1 02:29:04 10° NW 02:29:04 10° NW 02:29:06 10° NW visible
